Flag for U.S.A. Weather past 2 weeks in Salt Lake City, Utah, U.S.A.

Now
78 °F

Mostly cloudy.


Feels Like: 79 °F
Forecast: 62 / 81 °F
Wind: 22 mph from South

Location: Salt Lake City International Airport

Current Time: Aug 20, 2014 at 5:14:43 PM

Latest Report: Aug 20, 2014 at 4:53 PM


Visibility: 10 mi

Pressure: 29.76 "Hg

Humidity: 39%

Dew point: 51 °F

Location of Salt Lake CityLocation

Historic Weather in Salt Lake City — Graph

°F

Salt Lake City temperature yesterday

Maximum temperature yesterday: 80 °F (at 12:53 AM)
Minimum temperature yesterday: 65 °F (at 9:53 AM)
Average temperature yesterday: 71 °F

Past Weeks' High & Low Weather Summary

 TemperatureHumidityPressure
High94 °F (Aug 11, 3:53 PM)93% (Aug 20, 4:01 AM)30.13 "Hg (Aug 20, 4:01 AM)
Low61 °F (Aug 7, 4:53 AM)11% (Aug 18, 3:53 PM)29.67 "Hg (Aug 18, 7:53 PM)
Average76 °F43%29.91 "Hg
* Reported Aug 5 3:53 PM — Aug 20 3:53 PM, Salt Lake City, Weather by CustomWeather, © 2014

Note: Actual official high and low records may vary slightly from our data, if they occured in-between our weather recording intervals... More about our weather records

Advertising

Salt Lake City weather history for previous 24 hours

 ConditionsComfort  
Time TempWeatherWind HumidityBarometerVisibility
3:53 PM
Aug 20
79 °FBroken clouds.10 mph35%29.78 "Hg10 mi
2:53 PM81 °FScattered clouds.16 mph32%29.81 "Hg10 mi
1:53 PM77 °FBroken clouds.16 mph37%29.83 "Hg10 mi
12:53 PM76 °FScattered clouds.14 mph45%29.85 "Hg10 mi
11:53 AM73 °FScattered clouds.15 mph53%29.86 "Hg10 mi
10:53 AM70 °FScattered clouds.15 mph59%29.87 "Hg10 mi
9:53 AM66 °FScattered clouds.17 mph68%29.87 "Hg10 mi
8:53 AM63 °FBroken clouds.12 mph78%29.88 "Hg10 mi
7:53 AM63 °FBroken clouds.14 mph78%29.86 "Hg10 mi
6:53 AM62 °FPartly cloudy.14 mph83%29.84 "Hg10 mi
5:53 AM62 °FPassing clouds.9 mph86%29.81 "Hg10 mi
4:53 AM62 °FPartly cloudy.14 mph86%29.82 "Hg10 mi
4:01 AM61 °FLight rain. Overcast.12 mph93%29.93 "Hg7 mi
2:53 AM65 °FLight rain. Overcast.9 mph81%29.79 "Hg10 mi
1:53 AM67 °FLight rain. Mostly cloudy.8 mph79%29.76 "Hg10 mi
12:53 AM69 °FLight rain. Overcast.No wind66%29.75 "Hg10 mi
11:53 PM
Aug 19
69 °FMostly cloudy.8 mph66%29.74 "Hg10 mi
10:53 PM69 °FPassing clouds.7 mph66%29.76 "Hg10 mi
9:53 PM70 °FPartly cloudy.8 mph59%29.75 "Hg10 mi
8:53 PM70 °FBroken clouds.9 mph59%29.73 "Hg10 mi
7:53 PM70 °FBroken clouds.8 mph61%29.73 "Hg10 mi
6:53 PM72 °FPartly sunny.8 mph55%29.72 "Hg10 mi
5:53 PM74 °FScattered clouds.13 mph50%29.70 "Hg10 mi
Weather by CustomWeather, © 2014

See weather overviewHow to use our weather pages